Regional Weather Roundup
Issued by NWS Boston, MA

Home | Current Version | Previous Version | Text Only | Print | Product List | Glossary On
Versions: 1 2 3 4 5 6 7 8 9 10 11 12 13 14 15 16 17 18 19 20 21 22 23 24 25 26 27 28 29 30 31 32 33 34 35 36 37 38 39 40 41 42 43 44 45 46 47 48 49
000
ASUS41 KBOX 020710
RWRBOX

REGIONAL WEATHER ROUNDUP
NATIONAL WEATHER SERVICE TAUNTON MA
300 AM EDT SUN AUG 02 2015

NOTE:  "FAIR" INDICATES FEW OR NO CLOUDS BELOW 12,000 FEET WITH NO
SIGNIFICANT WEATHER AND/OR OBSTRUCTIONS TO VISIBILITY.  THE FOLLOWING
OBSERVATION LOCATIONS DO NOT REPORT PRESENT WEATHER...PROVINCETOWN...
SMITHFIELD...BLOCK ISLAND...KEENE...AND OXFORD.

MAZALL-020800-
EASTERN MASSACHUSETTS

CITY           SKY/WX    TMP DP  RH WIND       PRES   REMARKS
BOSTON         PTCLDY    72  53  51 W9        29.82S
BEVERLY        CLEAR     64  53  67 W3        29.81S
LAWRENCE       CLEAR     66  55  67 W7        29.84R
BEDFORD        CLEAR     62  55  77 SW3       29.82S
BLUE HILL        N/A     66  57  72 W12       29.84S
NORWOOD        CLEAR     61  59  93 CALM      29.83S
MARSHFIELD     CLEAR     66  63  88 W3        29.85S
PLYMOUTH       PTCLDY    64  61  90 W5        29.84S
TAUNTON        PTCLDY    63  60  90 CALM      29.84R FOG
NEW BEDFORD    CLEAR     64  62  93 CALM      29.83S
$$

MAZALL-020800-
CAPE COD AND THE ISLANDS

CITY           SKY/WX    TMP DP  RH WIND       PRES   REMARKS
FALMOUTH       PTCLDY    68  63  83 NW5       29.83S
HYANNIS        PTCLDY    72  61  68 NW5       29.81F
CHATHAM        CLEAR     69  65  86 NW5       29.83S
PROVINCETOWN   MOCLDY    70  61  73 W7        29.83R
NANTUCKET      CLEAR     72  70  93 NW7       29.82S
MARTHAS VNYRD  CLEAR     65  63  93 N3        29.83S
$$

MAZALL-020800-
CENTRAL AND WESTERN MASSACHUSETTS

CITY           SKY/WX    TMP DP  RH WIND       PRES   REMARKS
WORCESTER      CLEAR     63  53  70 W9        29.87F
FITCHBURG      CLEAR     63  54  72 N5        29.85S
ORANGE         CLEAR     57  55  93 CALM      29.86S
SPRINGFIELD    CLEAR     55  55 100 S5        29.85F FOG
WESTFIELD      CLEAR     58  56  93 CALM      29.86S
NORTH ADAMS    CLEAR     55  52  89 CALM      29.88S
PITTSFIELD     CLEAR     56  53  90 W3        29.88S
$$

RIZALL-020800-
RHODE ISLAND

CITY           SKY/WX    TMP DP  RH WIND       PRES   REMARKS
PROVIDENCE     CLEAR     68  62  81 NW7       29.85R
NEWPORT        CLEAR     66  63  90 CALM      29.84S
BLOCK ISLAND     N/A     68  64  88 NW7       29.85S
SMITHFIELD     PTCLDY    57  55  94 W3        29.86S
WESTERLY       CLEAR     65  62  90 CALM      29.86R
$$

CTZALL-020800-
CONNECTICUT

CITY           SKY/WX    TMP DP  RH WIND       PRES   REMARKS
BRADLEY INTL   CLEAR     62  56  80 W3        29.86S
HARTFORD       CLEAR     66  64  93 CALM      29.86S
BRIDGEPORT     CLEAR     70  59  68 N5        29.86S
DANBURY        CLEAR     60  56  86 SW3       29.89S
GROTON         CLEAR     64  62  93 CALM      29.85S
NEW HAVEN      CLEAR     67  60  78 N3        29.86S
CHESTER        NOT AVBL
MERIDEN        CLEAR     62  59  90 CALM      29.86S
WILLIMANTIC    CLEAR     63  60  90 N3        29.87R
OXFORD         CLEAR     64  52  63 CALM      29.89S
$$

MEZ002-015-021-024-NHZ003-005-008-011-012-014-VTZ005-008-020800-
NORTHERN NEW ENGLAND

CITY           SKY/WX    TMP DP  RH WIND       PRES   REMARKS
PORTLAND ME    CLEAR     63  57  81 CALM      29.79R
BANGOR ME      CLEAR     57  55  93 CALM      29.77R
CONCORD NH     CLEAR     56  53  90 CALM      29.82S
MANCHESTER NH  CLEAR     66  53  63 CALM      29.81S
NASHUA NH      CLEAR     64  53  67 W6        29.83S
PORTSMOUTH NH  PTCLDY    65  55  69 W8        29.79R
JAFFREY NH     CLEAR     58  53  84 S3        29.87S
KEENE NH       CLEAR     55  48  76 S3        29.86S
BURLINGTON VT  NOT AVBL
MT. WASHINGTON FOG       43  43 100 W23         N/A  VSB 1/16
$$

NYZ052-076-020800-
EASTERN NEW YORK

CITY           SKY/WX    TMP DP  RH WIND       PRES   REMARKS
ALBANY         CLEAR     60  54  80 CALM      29.86S
NEW YORK CITY  PTCLDY    76  58  53 NW3       29.86S
$$

ANZALL-020800-
MARINE OBSERVATIONS

STATION/POSITION TIME  TEMP    WIND        PRES    VSBY  WAVE
                       AIR SEA DIR/SP/G                  HT/PER
                 (UTC) (F)     (DEG/KT/KT) (MB)    (MI)  (FT/S)
BOSTON BUOY      0650   72 70  260/ 10/ 12 1009.8S         1/ 8
BUZZARDS BAY     0600          320/ 10/ 11 1010.9R
NANTUCKET SOUND  0650   75 75  300/ 10/ 12 1009.4F         1/ 8
MASS BAY-STELLWA 0604   72 67  260/ 12/ 14   N/A    1 7/8  2/11
ISLE OF SHOALS   0600   68     260/ 10/ 11 1008.4S
S OF BLOCK IS    0608      74                N/A           4/ 9
$$

......................KEY.........................
  SKY/WX - SKY CONDITION/PRESENT WEATHER
  TMP    - TEMPERATURE IN FAHRENHEIT
  DWPT   - DEWPOINT IN FAHRENHEIT
  RH     - RELATIVE HUMIDITY IN PERCENT
  WIND   - DIRECTION AND SPEED IN MPH
  PRES   - MEAN SEA LEVEL PRESSURE IN INCHES OF HG
  WCI    - WIND CHILL INDEX
  VSB    - VISIBILITY IN MILES
  HX     - HEAT INDEX
  TC     - TEMPERATURE IN CELSIUS
  VRB    - VARIABLE WIND DIRECTION
  N/A    - NOT AVAILABLE



USA.gov is the U.S. government's official web portal to all federal, state and local government web resources and services.